Location: Ertinghausen
(51.6624°N, 9.7874°E)
Time: 21:59:44
(UTC+00:00)

CZ-2C R/B - Pass Details

Date: 20 August 2024
Orbit: 703 x 904 km, 98.2° (Epoch: 07 September)

Event Time Altitude Azimuth Distance (km) Brightness Sun altitude
Rises 23:52:37 0° 27° (NNE) 3,282 7.4 -26.0°
Reaches altitude 10° 23:55:49 10° 48° (NE) 2,389 6.2 -26.0°
Maximum altitude 23:59:08 17° 87° (E) 1,999 5.2 -25.9°
Enters shadow 00:00:56 14° 110° (ESE) 2,147 5.2 -25.8°
